Погода в Тулсипуре

Непал     28°08′19″N   82°18′52″E
темп.,
°C
ветер,
м/с
пор.,
м/с
влажн.,
%
обл.,
%
осадки,
мм/ч
давл.,
гПа
погр.,
м
18 апреля, вс
вс1823:45+18ссв3348100 0.4 101444
02:45+17ссв43460 0.0 101242
05:45+16ссв33430 0.0 101228
08:45+26з23210 0.0 10121665
11:45+29зюз56120 0.0 10103791
14:45+30зюз77112 0.0 10073784
17:45+27з47142 0.0 10063335
20:45+21с32222 0.0 100918
19 апреля, пн
пн1923:45+19ссв33250 0.0 100925
02:45+18ссв33285 0.0 100832
05:45+17ссв33290 0.0 100832
08:45+27зсз36140 0.0 10081999
11:45+30з57100 0.0 10073334
14:45+31з6982 0.0 10043392
17:45+29з4790 0.0 10042952
20:45+21ссв32160 0.0 100715
20 апреля, вт
вт2023:45+20ссв331652 0.0 100822
02:45+19ссв43170 0.0 100731
05:45+19ссв43190 0.0 100734
08:45+29зсз2790 0.0 10072005
11:45+33з57712 0.0 10073564
14:45+33з678100 0.0 10044070
17:45+31з4711100 0.0 10042147
20:45+25ссв3216100 0.0 100817
21 апреля, ср
ср2123:45+24ссв3317100 0.0 100828
02:45+23ссв3218100 0.0 100723
05:45+23св3318100 0.0 100725
08:45+29ююв3313100 0.0 1010732
11:45+31юз3412100 0.1 10102796
14:45+32ссз461477 0.0 10073757
17:45+28с3418100 0.0 1008695
20:45+24ссв3224100 0.0 101026
22 апреля, чт
чт2223:45+23ссв3223100 0.0 101020
02:45+21ссв3223100 0.0 100918
05:45+21ссв3222100 0.0 100929
08:45+25с4425100 0.1 1012585
11:45+29ю6618100 0.2 10093720
14:45+28зюз1621100 0.1 10072803
17:45+18ссв565399 0.3 1010308
20:45+17ссв55585 0.0 101293